TimeCST,TemperatureF,Dew PointF,Humidity,Sea Level PressureIn,VisibilityMPH,Wind Direction,Wind SpeedMPH,Gust SpeedMPH,PrecipitationIn,Events,Conditions,WindDirDegrees,DateUTC
12:25 AM,28.4,21.2,74,29.91,9.0,SW,4.6,-,0.00,Snow,Light Snow,230,2012-12-11 06:25:00
12:53 AM,27.0,21.9,81,29.94,9.0,SW,4.6,-,0.00,Snow,Light Snow,230,2012-12-11 06:53:00
1:08 AM,26.6,21.2,80,29.91,9.0,Calm,Calm,-,0.00,Snow,Light Snow,0,2012-12-11 07:08:00
1:53 AM,26.1,21.9,84,29.95,9.0,Variable,3.5,-,0.00,Snow,Light Snow,0,2012-12-11 07:53:00
2:02 AM,26.6,21.2,80,29.92,9.0,SW,4.6,-,0.00,Snow,Light Snow,230,2012-12-11 08:02:00
2:53 AM,23.0,21.0,92,29.96,8.0,SW,8.1,-,0.00,,Overcast,230,2012-12-11 08:53:00
3:53 AM,23.0,19.9,88,29.96,7.0,SW,6.9,-,N/A,,Mostly Cloudy,220,2012-12-11 09:53:00
4:53 AM,21.9,18.0,85,29.96,10.0,SSW,4.6,-,N/A,,Mostly Cloudy,210,2012-12-11 10:53:00
5:39 AM,21.2,17.6,86,29.92,10.0,SSW,5.8,-,N/A,,Partly Cloudy,200,2012-12-11 11:39:00
5:53 AM,21.0,17.1,85,29.96,10.0,SSW,6.9,-,N/A,,Partly Cloudy,200,2012-12-11 11:53:00
6:53 AM,19.9,17.1,89,29.96,10.0,South,6.9,-,N/A,,Scattered Clouds,190,2012-12-11 12:53:00
7:53 AM,21.0,16.0,81,29.95,10.0,South,8.1,-,N/A,,Mostly Cloudy,190,2012-12-11 13:53:00
8:53 AM,23.0,15.1,72,29.95,10.0,South,11.5,-,N/A,,Mostly Cloudy,190,2012-12-11 14:53:00
9:53 AM,25.0,14.0,63,29.96,10.0,South,10.4,-,N/A,,Mostly Cloudy,190,2012-12-11 15:53:00
10:53 AM,25.0,15.1,66,29.94,10.0,SSW,6.9,-,N/A,,Overcast,210,2012-12-11 16:53:00
11:53 AM,27.0,17.1,66,29.94,10.0,Variable,6.9,16.1,0.00,,Partly Cloudy,0,2012-12-11 17:53:00
12:53 PM,28.0,18.0,66,29.95,10.0,SW,9.2,17.3,N/A,,Partly Cloudy,220,2012-12-11 18:53:00
1:53 PM,28.0,19.0,69,29.95,10.0,WSW,9.2,-,N/A,,Partly Cloudy,240,2012-12-11 19:53:00
2:53 PM,28.0,18.0,66,29.96,10.0,Variable,4.6,-,N/A,,Mostly Cloudy,0,2012-12-11 20:53:00
3:53 PM,28.0,19.0,69,29.99,10.0,SW,5.8,16.1,N/A,,Overcast,230,2012-12-11 21:53:00
4:53 PM,28.9,19.0,67,30.00,10.0,WSW,10.4,18.4,N/A,,Overcast,240,2012-12-11 22:53:00
5:53 PM,28.9,19.9,69,30.01,4.0,Variable,4.6,-,0.00,Snow,Light Snow,0,2012-12-11 23:53:00
6:53 PM,30.0,21.0,69,30.01,10.0,South,9.2,-,0.00,,Overcast,190,2012-12-12 00:53:00
7:53 PM,30.0,21.9,72,30.03,9.0,SSW,8.1,-,0.00,Snow,Light Snow,200,2012-12-12 01:53:00
8:53 PM,32.0,23.0,69,30.04,10.0,SW,8.1,-,0.00,,Overcast,220,2012-12-12 02:53:00
9:53 PM,33.1,24.1,70,30.06,10.0,SW,4.6,-,N/A,,Overcast,220,2012-12-12 03:53:00
10:05 PM,33.8,24.8,70,30.03,10.0,WSW,4.6,-,N/A,,Overcast,240,2012-12-12 04:05:00
10:53 PM,32.0,24.1,73,30.09,9.0,Variable,4.6,-,0.00,Snow,Light Snow,0,2012-12-12 04:53:00
11:53 PM,32.0,23.0,69,30.11,9.0,Variable,3.5,-,0.00,Snow,Light Snow,0,2012-12-12 05:53:00